When you browse on this site, cookies collect data to enhance your experience and personalize the content and advertising you see.
Visit our Privacy Policy to learn more. By continuing to use the site, you agree to this use of cookies and data.
  • în România
  • Lista ţărilor
  • Pe 7 zile
  • Temperatura apei
  • Hartă satelitară
  • Meteo pe hartă
  • Widget-uri
  • user-avatar
    Intrare

    Meteo pe oră la Nashville

    Astăzi, 21 Aprilie, Duminică

    Timp Temperatura Precipitaţii Vânt Presiune Umiditate
    00:00 +7°C° 0 mm 2 m/s 750 mmHg 77%
    01:00 +7°C° 0 mm 2 m/s 750 mmHg 76%
    02:00 +7°C° 0 mm 1 m/s 750 mmHg 76%
    03:00 +7°C° 0 mm 1 m/s 750 mmHg 75%
    04:00 +7°C° 0 mm 1 m/s 751 mmHg 74%
    05:00 +7°C° 0 mm 1 m/s 752 mmHg 73%
    06:00 +8°C° 0 mm 1 m/s 752 mmHg 73%
    07:00 +11°C° 0 mm 1 m/s 752 mmHg 64%
    08:00 +14°C° 0 mm 1 m/s 753 mmHg 55%
    09:00 +18°C° 0 mm 1 m/s 753 mmHg 47%
    10:00 +20°C° 0 mm 1 m/s 753 mmHg 42%
    11:00 +22°C° 0 mm 1 m/s 753 mmHg 37%
    12:00 +23°C° 0 mm 1 m/s 753 mmHg 32%
    13:00 +24°C° 0 mm 1 m/s 753 mmHg 33%
    14:00 +24°C° 0 mm 1 m/s 752 mmHg 33%
    15:00 +25°C° 0 mm 1 m/s 752 mmHg 33%
    16:00 +23°C° 0 mm 1 m/s 752 mmHg 39%
    17:00 +22°C° 0 mm 1 m/s 752 mmHg 44%
    18:00 +20°C° 0 mm 1 m/s 752 mmHg 49%
    19:00 +19°C° 0 mm 1 m/s 753 mmHg 52%
    20:00 +16°C° 0 mm 1 m/s 753 mmHg 55%
    21:00 +15°C° 0 mm 1 m/s 754 mmHg 58%
    22:00 +15°C° 0 mm 1 m/s 754 mmHg 61%
    23:00 +14°C° 0 mm 1 m/s 754 mmHg 64%

    Mâine, 22 Aprilie, Luni

    Timp Temperatura Precipitaţii Vânt Presiune Umiditate
    00:00 +13°C° 0 mm 1 m/s 754 mmHg 68%
    01:00 +13°C° 0 mm 1 m/s 754 mmHg 71%
    02:00 +13°C° 0 mm 1 m/s 754 mmHg 74%
    03:00 +12°C° 0 mm 1 m/s 754 mmHg 77%
    04:00 +12°C° 0 mm 1 m/s 754 mmHg 78%
    05:00 +12°C° 0 mm 1 m/s 754 mmHg 79%
    06:00 +12°C° 0 mm 1 m/s 754 mmHg 80%
    07:00 +15°C° 0 mm 2 m/s 755 mmHg 73%
    08:00 +18°C° 0 mm 2 m/s 755 mmHg 67%
    09:00 +20°C° 0 mm 2 m/s 755 mmHg 60%
    10:00 +21°C° 0 mm 2 m/s 755 mmHg 58%
    11:00 +24°C° 0 mm 2 m/s 755 mmHg 56%
    12:00 +25°C° 0 mm 2 m/s 755 mmHg 54%
    13:00 +25°C° 0 mm 2 m/s 754 mmHg 51%
    14:00 +26°C° 0 mm 2 m/s 754 mmHg 49%
    15:00 +27°C° 0 mm 2 m/s 753 mmHg 47%
    16:00 +26°C° 0 mm 2 m/s 753 mmHg 53%
    17:00 +24°C° 0 mm 2 m/s 753 mmHg 59%
    18:00 +23°C° 0 mm 2 m/s 753 mmHg 66%
    19:00 +21°C° 0 mm 2 m/s 753 mmHg 69%
    20:00 +20°C° 0 mm 2 m/s 753 mmHg 72%
    21:00 +19°C° 0 mm 2 m/s 753 mmHg 76%
    22:00 +18°C° 0 mm 2 m/s 753 mmHg 77%
    23:00 +17°C° 0 mm 2 m/s 753 mmHg 79%

    Poimâine, 23 Aprilie, Marţi

    Timp Temperatura Precipitaţii Vânt Presiune Umiditate
    00:00 +17°C° 0 mm 2 m/s 753 mmHg 81%
    01:00 +16°C° 0 mm 2 m/s 753 mmHg 81%
    02:00 +16°C° 0 mm 2 m/s 753 mmHg 81%
    03:00 +15°C° 0 mm 2 m/s 752 mmHg 82%
    04:00 +15°C° 0 mm 2 m/s 753 mmHg 82%
    05:00 +15°C° 0 mm 2 m/s 753 mmHg 81%
    06:00 +15°C° 0 mm 2 m/s 753 mmHg 81%
    07:00 +18°C° 0 mm 2 m/s 753 mmHg 74%
    08:00 +20°C° 0 mm 3 m/s 753 mmHg 67%
    09:00 +22°C° 0 mm 3 m/s 753 mmHg 61%
    10:00 +25°C° 0 mm 3 m/s 753 mmHg 56%
    11:00 +26°C° 0 mm 3 m/s 753 mmHg 51%
    12:00 +28°C° 0 mm 3 m/s 752 mmHg 46%
    13:00 +28°C° 0 mm 4 m/s 752 mmHg 46%
    14:00 +28°C° 0 mm 4 m/s 752 mmHg 46%
    15:00 +29°C° 0 mm 4 m/s 751 mmHg 46%
    16:00 +27°C° 0 mm 4 m/s 751 mmHg 52%
    17:00 +25°C° 0 mm 3 m/s 751 mmHg 58%
    18:00 +24°C° 0 mm 3 m/s 751 mmHg 64%
    19:00 +23°C° 0 mm 2 m/s 751 mmHg 66%
    20:00 +23°C° 0 mm 2 m/s 751 mmHg 68%
    21:00 +22°C° 0 mm 1 m/s 752 mmHg 70%
    22:00 +20°C° 0 mm 2 m/s 751 mmHg 73%
    23:00 +19°C° 0 mm 2 m/s 751 mmHg 76%

    24 Aprilie, Miercuri

    Timp Temperatura Precipitaţii Vânt Presiune Umiditate
    00:00 +18°C° 0 mm 2 m/s 751 mmHg 79%
    01:00 +19°C° 0 mm 1 m/s 751 mmHg 79%
    02:00 +18°C° 0 mm 1 m/s 751 mmHg 80%
    03:00 +16°C° 0 mm 1 m/s 750 mmHg 81%
    04:00 +16°C° 0 mm 1 m/s 751 mmHg 81%
    05:00 +16°C° 0 mm 1 m/s 751 mmHg 81%
    06:00 +16°C° 0 mm 1 m/s 751 mmHg 81%
    07:00 +20°C° 0 mm 1 m/s 751 mmHg 73%
    08:00 +21°C° 0 mm 2 m/s 751 mmHg 66%
    09:00 +24°C° 0 mm 2 m/s 752 mmHg 58%
    10:00 +26°C° 0 mm 2 m/s 751 mmHg 54%
    11:00 +27°C° 0 mm 2 m/s 751 mmHg 49%
    12:00 +28°C° 0 mm 2 m/s 750 mmHg 44%
    13:00 +29°C° 0 mm 2 m/s 750 mmHg 44%
    14:00 +29°C° 0 mm 3 m/s 749 mmHg 44%
    15:00 +29°C° 0 mm 3 m/s 749 mmHg 44%
    16:00 +28°C° 0 mm 3 m/s 749 mmHg 49%
    17:00 +27°C° 0 mm 2 m/s 749 mmHg 55%
    18:00 +25°C° 0 mm 2 m/s 749 mmHg 61%
    19:00 +24°C° 0 mm 2 m/s 749 mmHg 66%
    20:00 +23°C° 0 mm 2 m/s 749 mmHg 70%
    21:00 +22°C° 0 mm 1 m/s 749 mmHg 74%
    22:00 +22°C° 0 mm 1 m/s 749 mmHg 74%
    23:00 +20°C° 0 mm 2 m/s 749 mmHg 75%

    25 Aprilie, Joi

    Timp Temperatura Precipitaţii Vânt Presiune Umiditate
    00:00 +20°C° 0 mm 2 m/s 749 mmHg 76%
    01:00 +19°C° 0 mm 2 m/s 749 mmHg 76%
    02:00 +19°C° 0 mm 2 m/s 749 mmHg 77%
    03:00 +18°C° 0 mm 2 m/s 748 mmHg 78%
    04:00 +18°C° 0 mm 2 m/s 749 mmHg 79%
    05:00 +18°C° 0 mm 2 m/s 749 mmHg 79%
    06:00 +18°C° 0 mm 2 m/s 749 mmHg 80%
    07:00 +20°C° 0 mm 2 m/s 749 mmHg 76%
    08:00 +21°C° 0 mm 2 m/s 749 mmHg 71%
    09:00 +24°C° 0 mm 2 m/s 749 mmHg 67%
    10:00 +26°C° 0 mm 3 m/s 749 mmHg 61%
    11:00 +27°C° 0 mm 3 m/s 749 mmHg 56%
    12:00 +28°C° 0 mm 4 m/s 748 mmHg 50%
    13:00 +28°C° 0 mm 4 m/s 748 mmHg 52%
    14:00 +28°C° 0 mm 4 m/s 748 mmHg 53%
    15:00 +28°C° 0 mm 4 m/s 747 mmHg 55%
    16:00 +26°C° 0.1 mm 3 m/s 747 mmHg 59%
    17:00 +25°C° 0.1 mm 3 m/s 748 mmHg 63%
    18:00 +24°C° 0.1 mm 3 m/s 748 mmHg 68%
    19:00 +22°C° 0.3 mm 3 m/s 748 mmHg 72%
    20:00 +21°C° 0.3 mm 3 m/s 749 mmHg 77%
    21:00 +20°C° 0.3 mm 2 m/s 749 mmHg 81%
    22:00 +19°C° 0.1 mm 2 m/s 749 mmHg 83%
    23:00 +19°C° 0.1 mm 2 m/s 749 mmHg 84%

    26 Aprilie, Vineri

    Timp Temperatura Precipitaţii Vânt Presiune Umiditate
    00:00 +19°C° 0.1 mm 1 m/s 748 mmHg 85%
    01:00 +19°C° 0.5 mm 1 m/s 748 mmHg 87%
    02:00 +19°C° 0.5 mm 1 m/s 748 mmHg 88%
    03:00 +19°C° 0.5 mm 1 m/s 748 mmHg 89%
    04:00 +17°C° 0.5 mm 0 m/s 748 mmHg 89%
    05:00 +16°C° 0.5 mm 0 m/s 748 mmHg 89%
    06:00 +16°C° 0.5 mm 0 m/s 749 mmHg 90%
    07:00 +19°C° 0 mm 1 m/s 749 mmHg 86%
    08:00 +19°C° 0 mm 2 m/s 749 mmHg 83%
    09:00 +21°C° 0 mm 2 m/s 750 mmHg 79%
    10:00 +23°C° 0.2 mm 2 m/s 749 mmHg 74%
    11:00 +24°C° 0.2 mm 3 m/s 749 mmHg 70%
    12:00 +25°C° 0.2 mm 3 m/s 749 mmHg 65%
    13:00 +25°C° 0.3 mm 4 m/s 749 mmHg 64%
    14:00 +25°C° 0.3 mm 4 m/s 749 mmHg 62%
    15:00 +26°C° 0.3 mm 5 m/s 749 mmHg 61%
    16:00 +25°C° 0 mm 4 m/s 749 mmHg 64%
    17:00 +23°C° 0 mm 4 m/s 749 mmHg 67%
    18:00 +22°C° 0 mm 4 m/s 750 mmHg 70%
    19:00 +21°C° 0 mm 4 m/s 750 mmHg 71%
    20:00 +19°C° 0 mm 4 m/s 751 mmHg 71%
    21:00 +18°C° 0 mm 3 m/s 751 mmHg 72%
    22:00 +18°C° 0 mm 3 m/s 751 mmHg 72%
    23:00 +17°C° 0 mm 3 m/s 751 mmHg 73%
    Arată mai mult